Hourly Weather Rudka

Today, 16 April, Friday

Time Temperature Precipitation Wind Pressure Humidity
00:00 +3°C° 0.2 mm 4 mps 749 mmHg 96%
01:00 +3°C° 0.2 mm 4 mps 749 mmHg 96%
02:00 +3°C° 0.2 mm 4 mps 748 mmHg 96%
03:00 +3°C° 0.3 mm 4 mps 748 mmHg 96%
04:00 +3°C° 0.3 mm 4 mps 748 mmHg 96%
05:00 +2°C° 0.3 mm 5 mps 748 mmHg 97%
06:00 +2°C° 0.4 mm 5 mps 747 mmHg 96%
07:00 +2°C° 0.4 mm 5 mps 747 mmHg 96%
08:00 +2°C° 0.4 mm 5 mps 747 mmHg 96%
09:00 +3°C° 0 mm 5 mps 747 mmHg 95%
10:00 +3°C° 0 mm 5 mps 747 mmHg 94%
11:00 +5°C° 0 mm 5 mps 747 mmHg 94%
12:00 +5°C° 0.2 mm 5 mps 747 mmHg 93%
13:00 +6°C° 0.2 mm 5 mps 747 mmHg 92%
14:00 +6°C° 0.2 mm 5 mps 748 mmHg 91%
15:00 +6°C° 0 mm 4 mps 748 mmHg 91%
16:00 +7°C° 0 mm 4 mps 748 mmHg 91%
17:00 +7°C° 0 mm 4 mps 748 mmHg 91%
18:00 +7°C° 0 mm 4 mps 748 mmHg 92%
19:00 +6°C° 0 mm 4 mps 748 mmHg 93%
20:00 +6°C° 0 mm 4 mps 748 mmHg 94%
21:00 +6°C° 0.8 mm 4 mps 748 mmHg 94%
22:00 +6°C° 0.8 mm 4 mps 748 mmHg 95%
23:00 +6°C° 0.8 mm 4 mps 748 mmHg 96%

Tomorrow, 17 April, Saturday

Time Temperature Precipitation Wind Pressure Humidity
00:00 +6°C° 0.1 mm 4 mps 748 mmHg 96%
01:00 +6°C° 0.1 mm 4 mps 748 mmHg 96%
02:00 +6°C° 0.1 mm 4 mps 749 mmHg 96%
03:00 +5°C° 0 mm 4 mps 749 mmHg 96%
04:00 +5°C° 0 mm 4 mps 749 mmHg 95%
05:00 +5°C° 0 mm 4 mps 749 mmHg 95%
06:00 +5°C° 0 mm 4 mps 749 mmHg 94%
07:00 +6°C° 0 mm 4 mps 750 mmHg 92%
08:00 +6°C° 0 mm 4 mps 750 mmHg 91%
09:00 +7°C° 0 mm 4 mps 750 mmHg 88%
10:00 +8°C° 0 mm 4 mps 751 mmHg 86%
11:00 +9°C° 0 mm 3 mps 751 mmHg 83%
12:00 +10°C° 0.1 mm 3 mps 751 mmHg 78%
13:00 +11°C° 0.1 mm 3 mps 751 mmHg 73%
14:00 +12°C° 0.1 mm 3 mps 751 mmHg 68%
15:00 +12°C° 0 mm 3 mps 751 mmHg 67%
16:00 +13°C° 0 mm 2 mps 751 mmHg 65%
17:00 +13°C° 0 mm 2 mps 751 mmHg 64%
18:00 +12°C° 0 mm 1 mps 752 mmHg 69%
19:00 +10°C° 0 mm 1 mps 752 mmHg 74%
20:00 +8°C° 0 mm 0 mps 752 mmHg 79%
21:00 +9°C° 0 mm 1 mps 752 mmHg 81%
22:00 +8°C° 0 mm 1 mps 752 mmHg 83%
23:00 +8°C° 0 mm 1 mps 752 mmHg 85%

Day after tomorrow, 18 April, Sunday

Time Temperature Precipitation Wind Pressure Humidity
00:00 +6°C° 0 mm 2 mps 752 mmHg 88%
01:00 +6°C° 0 mm 2 mps 752 mmHg 90%
02:00 +6°C° 0 mm 2 mps 752 mmHg 92%
03:00 +6°C° 0 mm 2 mps 752 mmHg 93%
04:00 +6°C° 0 mm 2 mps 752 mmHg 94%
05:00 +5°C° 0 mm 2 mps 751 mmHg 95%
06:00 +6°C° 0.1 mm 2 mps 751 mmHg 93%
07:00 +7°C° 0.1 mm 3 mps 751 mmHg 91%
08:00 +8°C° 0.1 mm 3 mps 751 mmHg 90%
09:00 +10°C° 0 mm 3 mps 751 mmHg 82%
10:00 +12°C° 0 mm 4 mps 751 mmHg 75%
11:00 +13°C° 0 mm 5 mps 751 mmHg 67%
12:00 +14°C° 0.1 mm 5 mps 751 mmHg 66%
13:00 +14°C° 0.1 mm 5 mps 751 mmHg 65%
14:00 +14°C° 0.1 mm 5 mps 751 mmHg 63%
15:00 +13°C° 0.1 mm 4 mps 751 mmHg 66%
16:00 +13°C° 0.1 mm 4 mps 751 mmHg 69%
17:00 +12°C° 0.1 mm 4 mps 751 mmHg 72%
18:00 +12°C° 0 mm 4 mps 751 mmHg 73%
19:00 +11°C° 0 mm 4 mps 751 mmHg 75%
20:00 +10°C° 0 mm 3 mps 751 mmHg 76%
21:00 +9°C° 0 mm 3 mps 752 mmHg 79%
22:00 +9°C° 0 mm 3 mps 752 mmHg 82%
23:00 +8°C° 0 mm 3 mps 752 mmHg 85%

19 April, Monday

Time Temperature Precipitation Wind Pressure Humidity
00:00 +8°C° 0 mm 3 mps 752 mmHg 84%
01:00 +7°C° 0 mm 3 mps 752 mmHg 83%
02:00 +7°C° 0 mm 2 mps 752 mmHg 81%
03:00 +7°C° 0 mm 2 mps 751 mmHg 82%
04:00 +7°C° 0 mm 2 mps 751 mmHg 83%
05:00 +6°C° 0 mm 2 mps 751 mmHg 83%
06:00 +8°C° 0 mm 1 mps 751 mmHg 82%
07:00 +8°C° 0 mm 1 mps 751 mmHg 81%
08:00 +8°C° 0 mm 1 mps 751 mmHg 80%
09:00 +9°C° 0 mm 2 mps 751 mmHg 74%
10:00 +10°C° 0 mm 4 mps 751 mmHg 68%
11:00 +10°C° 0 mm 5 mps 750 mmHg 63%
12:00 +10°C° 0 mm 5 mps 750 mmHg 62%
13:00 +10°C° 0 mm 5 mps 750 mmHg 62%
14:00 +9°C° 0 mm 5 mps 750 mmHg 62%
15:00 +9°C° 0 mm 5 mps 749 mmHg 66%
16:00 +8°C° 0 mm 5 mps 749 mmHg 71%
17:00 +7°C° 0 mm 5 mps 749 mmHg 75%
18:00 +7°C° 0 mm 4 mps 749 mmHg 76%
19:00 +7°C° 0 mm 4 mps 748 mmHg 78%
20:00 +7°C° 0 mm 3 mps 748 mmHg 79%
21:00 +7°C° 0 mm 3 mps 748 mmHg 82%
22:00 +6°C° 0 mm 2 mps 748 mmHg 86%
23:00 +5°C° 0 mm 2 mps 748 mmHg 89%

20 April, Tuesday

Time Temperature Precipitation Wind Pressure Humidity
00:00 +5°C° 0 mm 3 mps 747 mmHg 88%
01:00 +5°C° 0 mm 3 mps 747 mmHg 88%
02:00 +5°C° 0 mm 3 mps 746 mmHg 88%
03:00 +5°C° 0.2 mm 4 mps 746 mmHg 89%
04:00 +5°C° 0.2 mm 4 mps 745 mmHg 90%
05:00 +5°C° 0.2 mm 4 mps 745 mmHg 91%
06:00 +5°C° 0.3 mm 4 mps 745 mmHg 90%
07:00 +5°C° 0.3 mm 4 mps 745 mmHg 89%
08:00 +5°C° 0.3 mm 5 mps 744 mmHg 87%
09:00 +6°C° 0.1 mm 4 mps 744 mmHg 86%
10:00 +6°C° 0.1 mm 4 mps 744 mmHg 85%
11:00 +6°C° 0.1 mm 4 mps 744 mmHg 83%
12:00 +7°C° 0.1 mm 4 mps 743 mmHg 83%
13:00 +7°C° 0.1 mm 4 mps 743 mmHg 82%
14:00 +7°C° 0.1 mm 5 mps 743 mmHg 82%
15:00 +7°C° 0.1 mm 5 mps 742 mmHg 80%
16:00 +8°C° 0.1 mm 6 mps 742 mmHg 78%
17:00 +8°C° 0.1 mm 7 mps 741 mmHg 76%
18:00 +7°C° 0 mm 6 mps 741 mmHg 78%
19:00 +5°C° 0 mm 6 mps 741 mmHg 79%
20:00 +5°C° 0 mm 6 mps 741 mmHg 81%
21:00 +4°C° 0 mm 6 mps 741 mmHg 81%
22:00 +4°C° 0 mm 7 mps 740 mmHg 82%
23:00 +4°C° 0 mm 7 mps 740 mmHg 83%

21 April, Wednesday

Time Temperature Precipitation Wind Pressure Humidity
00:00 +4°C° 0 mm 7 mps 739 mmHg 81%
01:00 +4°C° 0 mm 7 mps 739 mmHg 80%
02:00 +4°C° 0 mm 7 mps 739 mmHg 79%
03:00 +2°C° 0.1 mm 8 mps 739 mmHg 80%
04:00 +2°C° 0.1 mm 8 mps 739 mmHg 82%
05:00 +2°C° 0.1 mm 8 mps 739 mmHg 84%
06:00 +2°C° 0.2 mm 8 mps 739 mmHg 84%
07:00 +2°C° 0.2 mm 8 mps 739 mmHg 85%
08:00 +4°C° 0.2 mm 8 mps 739 mmHg 86%
09:00 +4°C° 0.1 mm 8 mps 740 mmHg 81%
10:00 +5°C° 0.1 mm 8 mps 740 mmHg 76%
11:00 +6°C° 0.1 mm 8 mps 740 mmHg 71%
12:00 +6°C° 0.1 mm 8 mps 741 mmHg 71%
13:00 +7°C° 0.1 mm 8 mps 741 mmHg 70%
14:00 +8°C° 0.1 mm 7 mps 742 mmHg 70%
15:00 +8°C° 0.1 mm 7 mps 742 mmHg 69%
16:00 +8°C° 0.1 mm 7 mps 743 mmHg 69%
17:00 +8°C° 0.1 mm 7 mps 743 mmHg 69%
18:00 +7°C° 0 mm 5 mps 743 mmHg 73%
19:00 +6°C° 0 mm 4 mps 744 mmHg 77%
20:00 +5°C° 0 mm 3 mps 744 mmHg 80%
21:00 +4°C° 0 mm 3 mps 745 mmHg 83%
22:00 +4°C° 0 mm 3 mps 745 mmHg 86%
23:00 +3°C° 0 mm 3 mps 745 mmHg 88%
Show more